Kaprifol — 5BXX2 — position and weather

sailwx.info

Track history (hours):
 
Tides and Currents Weather Stations Pressure Air Temp Water Temp Dewpoint Dewpoint Depression Visibility Wind Speed Wind Dir Waves Ship Positions

Kaprifol

Last reported at 2014-Jul-29 20:22 UTC. Time now 2014-Jul-29 23:04 UTC.
Position N 63°28' E 010°03'.

Length 90 m; draft 4.6 m.

Type: Tanker. MMSI: 210445000.

Date/timePositionNaut miles runAvg speedWind from/ knotsBaromVisibWave heightAir tempDewpointWater temp
2014-Jul-29 20:22N 63°28' E 010°03'810.2
2014-Jul-29 19:33N 63°27' E 010°21'1 0.8
2014-Jul-29 18:32N 63°26' E 010°22'0 0.0
2014-Jul-29 17:32N 63°26' E 010°22'0 0.0
2014-Jul-29 16:32N 63°26' E 010°22'0 0.0
2014-Jul-29 15:32N 63°26' E 010°22'0 0.0
2014-Jul-29 14:32N 63°26' E 010°22'0 0.0
2014-Jul-29 13:32N 63°26' E 010°22'0 0.0
2014-Jul-29 12:32N 63°26' E 010°22'0 0.0
2014-Jul-29 11:29N 63°26' E 010°22'5 5.4
2014-Jul-29 10:33N 63°30' E 010°28'5 0.3
2014-Jul-28 14:33N 63°35' E 010°33'10 9.8
2014-Jul-28 13:33N 63°29' E 010°17'296 8.2
2014-Jul-27 01:22N 59°15' E 004°60'810.1
2014-Jul-27 00:33N 59°08' E 005°08'10 9.8
2014-Jul-26 23:33N 59°07' E 005°27'9 9.1
2014-Jul-26 22:33N 59°01' E 005°41'4 3.7
2014-Jul-26 21:32N 58°58' E 005°45'0 0.0
2014-Jul-26 20:32N 58°58' E 005°45'0 0.0
2014-Jul-26 19:32N 58°58' E 005°45'0 0.0
2014-Jul-26 18:32N 58°58' E 005°45'0 0.0
2014-Jul-26 17:32N 58°58' E 005°45'0 0.0
2014-Jul-26 16:32N 58°58' E 005°45'0 0.0
2014-Jul-26 15:32N 58°58' E 005°45'0 0.0
2014-Jul-26 14:32N 58°58' E 005°45'0 0.0
2014-Jul-26 13:32N 58°58' E 005°45'0 0.0
2014-Jul-26 12:31N 58°58' E 005°45'0 0.0
2014-Jul-26 11:31N 58°58' E 005°45'0 0.0
2014-Jul-26 10:31N 58°58' E 005°45'3 3.3
2014-Jul-26 09:33N 59°01' E 005°42'9 9.2
2014-Jul-26 08:33N 59°06' E 005°27'9 9.3
2014-Jul-26 07:33N 59°00' E 005°12'1111.1
2014-Jul-26 06:33N 58°51' E 005°02'104 9.1
2014-Jul-25 19:04N 57°19' E 003°30'510.1
2014-Jul-25 18:33N 57°14' E 003°26'1010.2
2014-Jul-25 17:33N 57°05' E 003°18'1010.1
2014-Jul-25 16:33N 56°56' E 003°09'8 7.9
2014-Jul-25 15:33N 56°49' E 003°03'1110.6
2014-Jul-25 14:33N 56°40' E 002°54'1010.5
2014-Jul-25 13:33N 56°30' E 002°45'4110.2
2014-Jul-25 09:30N 55°53' E 002°13'1010.7
2014-Jul-25 08:33N 55°44' E 002°05'1110.8
2014-Jul-25 07:33N 55°34' E 001°57'1110.8
2014-Jul-25 06:31N 55°24' E 001°48'3110.4
2014-Jul-25 03:33N 54°56' E 001°26'1010.1
2014-Jul-25 02:33N 54°47' E 001°18'1010.2
2014-Jul-25 01:33N 54°38' E 001°10'1010.4
2014-Jul-25 00:33N 54°28' E 001°03'1110.6
2014-Jul-24 23:33N 54°19' E 000°55'1110.7
2014-Jul-24 22:33N 54°09' E 000°47'1110.6
2014-Jul-24 21:33N 53°59' E 000°39'1110.9
2014-Jul-24 20:33N 53°50' E 000°31'1111.4
2014-Jul-24 19:33N 53°39' E 000°23'1010.5
2014-Jul-24 18:34N 53°32' E 000°10'1211.5
2014-Jul-24 17:33N 53°37' W 000°08'2 2.0
2014-Jul-24 16:31N 53°38' W 000°11'0 0.0
2014-Jul-24 15:31N 53°38' W 000°11'0 0.0
2014-Jul-24 14:31N 53°38' W 000°11'0 0.0
2014-Jul-24 13:31N 53°38' W 000°11'0 0.0
2014-Jul-24 12:31N 53°38' W 000°11'0 0.0
2014-Jul-24 11:28N 53°38' W 000°11'0 0.0
2014-Jul-24 10:31N 53°38' W 000°11'0 0.0
2014-Jul-24 09:31N 53°38' W 000°11'0 0.0
2014-Jul-24 08:31N 53°38' W 000°11'0 0.0
2014-Jul-24 07:31N 53°38' W 000°11'0 0.0
2014-Jul-24 06:31N 53°38' W 000°11'0 0.0
2014-Jul-24 05:31N 53°38' W 000°11'0 0.0
2014-Jul-24 04:31N 53°38' W 000°11'0 0.0
2014-Jul-24 03:31N 53°38' W 000°11'0 0.0
2014-Jul-24 02:31N 53°38' W 000°11'0 0.0
2014-Jul-24 01:31N 53°38' W 000°11'0 0.0
2014-Jul-24 00:28N 53°38' W 000°11'0 0.0
2014-Jul-23 23:34N 53°38' W 000°11'7 6.6
2014-Jul-23 22:33N 53°36' W 000°01'9 9.4
2014-Jul-23 21:33N 53°33' E 000°14'6 6.3
2014-Jul-23 20:33N 53°38' E 000°21'6 6.4
2014-Jul-23 19:33N 53°43' E 000°27'10 9.8
2014-Jul-23 18:33N 53°50' E 000°39'1010.0
2014-Jul-23 17:33N 53°57' E 000°52'1010.2
2014-Jul-23 16:33N 54°04' E 001°05'1110.2
2014-Jul-23 15:31N 54°11' E 001°18'1010.3
2014-Jul-23 14:34N 54°18' E 001°30'8 7.8
2014-Jul-23 13:34N 54°23' E 001°40'1110.5
2014-Jul-23 12:33N 54°30' E 001°54'1110.6
2014-Jul-23 11:33N 54°37' E 002°07'9510.4
2014-Jul-23 02:25N 55°41' E 004°09'910.1
2014-Jul-23 01:33N 55°48' E 004°20'19710.2
2014-Jul-22 06:08N 58°02' E 008°46'711.1
2014-Jul-22 05:32N 58°07' E 008°55'3510.9
2014-Jul-22 02:21N 58°33' E 009°38'1310.8
2014-Jul-22 01:10N 58°41' E 009°57'810.9
2014-Jul-22 00:25N 58°46' E 010°09'1011.3
2014-Jul-21 23:33N 58°53' E 010°23'1111.0
2014-Jul-21 22:34N 58°59' E 010°40'9 8.9
2014-Jul-21 21:34N 59°01' E 010°57'0 0.5
2014-Jul-21 20:33N 59°01' E 010°58'0 0.0
2014-Jul-21 20:18N 59°01' E 010°58'0 0.0
2014-Jul-21 19:33N 59°01' E 010°58'0 0.0
2014-Jul-21 18:33N 59°01' E 010°58'1 1.3
2014-Jul-21 17:34N 59°02' E 010°58'10 9.7
2014-Jul-21 16:34N 59°12' E 010°57'6 2.0
2014-Jul-21 13:22N 59°16' E 011°06'0 0.0
2014-Jul-21 12:31N 59°16' E 011°06'0 0.0
2014-Jul-21 11:25N 59°16' E 011°06'0 0.0
2014-Jul-21 10:13N 59°16' E 011°06'0 0.0
2014-Jul-21 09:31N 59°16' E 011°06'0 0.0
2014-Jul-21 08:33N 59°16' E 011°06'0 0.0
2014-Jul-21 07:30N 59°16' E 011°06'0 0.0
2014-Jul-21 06:33N 59°16' E 011°06'0 0.0
2014-Jul-21 05:03N 59°16' E 011°06'0 0.0
2014-Jul-21 04:33N 59°16' E 011°06'0 0.0
2014-Jul-21 03:33N 59°16' E 011°06'4 4.0
2014-Jul-21 02:33N 59°14' E 010°59'7 7.2
2014-Jul-21 01:33N 59°07' E 010°59'6 6.2
2014-Jul-21 00:33N 59°02' E 010°52'7 7.3
2014-Jul-20 23:33N 58°60' E 010°38'8 7.9
2014-Jul-20 22:33N 58°56' E 010°25'54 7.4
2014-Jul-20 15:15N 58°22' E 009°02'5 7.6
2014-Jul-20 14:33N 58°19' E 008°55'8 8.3
2014-Jul-20 13:33N 58°13' E 008°43'8 7.9
2014-Jul-20 12:33N 58°08' E 008°32'7 7.5
2014-Jul-20 11:33N 58°04' E 008°20'74 7.1
2014-Jul-20 01:03N 58°14' E 006°00'4 9.0
2014-Jul-20 00:33N 58°16' E 005°54'9 8.9
2014-Jul-19 23:33N 58°23' E 005°41'11 8.9
2014-Jul-19 22:19N 58°30' E 005°26'17 9.4
2014-Jul-19 20:30N 58°42' E 005°02'  
Track history (hours):
 
Tides and Currents Weather Stations Pressure Air Temp Water Temp Dewpoint Dewpoint Depression Visibility Wind Speed Wind Dir Waves Ship Positions

Kaprifol

Last reported at 2014-Jul-29 20:22 UTC. Time now 2014-Jul-29 23:04 UTC.
Position N 63°28' E 010°03'.

Length 90 m; draft 4.6 m.

Type: Tanker. MMSI: 210445000.

Date/timePositionNaut miles runAvg speedWind from/ knotsBaromVisibWave heightAir tempDewpointWater temp
2014-Jul-29 20:22N 63°28' E 010°03'810.2
2014-Jul-29 19:33N 63°27' E 010°21'1 0.8
2014-Jul-29 18:32N 63°26' E 010°22'0 0.0
2014-Jul-29 17:32N 63°26' E 010°22'0 0.0
2014-Jul-29 16:32N 63°26' E 010°22'0 0.0
2014-Jul-29 15:32N 63°26' E 010°22'0 0.0
2014-Jul-29 14:32N 63°26' E 010°22'0 0.0
2014-Jul-29 13:32N 63°26' E 010°22'0 0.0
2014-Jul-29 12:32N 63°26' E 010°22'0 0.0
2014-Jul-29 11:29N 63°26' E 010°22'5 5.4
2014-Jul-29 10:33N 63°30' E 010°28'5 0.3
2014-Jul-28 14:33N 63°35' E 010°33'10 9.8
2014-Jul-28 13:33N 63°29' E 010°17'296 8.2
2014-Jul-27 01:22N 59°15' E 004°60'810.1
2014-Jul-27 00:33N 59°08' E 005°08'10 9.8
2014-Jul-26 23:33N 59°07' E 005°27'9 9.1
2014-Jul-26 22:33N 59°01' E 005°41'4 3.7
2014-Jul-26 21:32N 58°58' E 005°45'0 0.0
2014-Jul-26 20:32N 58°58' E 005°45'0 0.0
2014-Jul-26 19:32N 58°58' E 005°45'0 0.0
2014-Jul-26 18:32N 58°58' E 005°45'0 0.0
2014-Jul-26 17:32N 58°58' E 005°45'0 0.0
2014-Jul-26 16:32N 58°58' E 005°45'0 0.0
2014-Jul-26 15:32N 58°58' E 005°45'0 0.0
2014-Jul-26 14:32N 58°58' E 005°45'0 0.0
2014-Jul-26 13:32N 58°58' E 005°45'0 0.0
2014-Jul-26 12:31N 58°58' E 005°45'0 0.0
2014-Jul-26 11:31N 58°58' E 005°45'0 0.0
2014-Jul-26 10:31N 58°58' E 005°45'3 3.3
2014-Jul-26 09:33N 59°01' E 005°42'9 9.2
2014-Jul-26 08:33N 59°06' E 005°27'9 9.3
2014-Jul-26 07:33N 59°00' E 005°12'1111.1
2014-Jul-26 06:33N 58°51' E 005°02'104 9.1
2014-Jul-25 19:04N 57°19' E 003°30'510.1
2014-Jul-25 18:33N 57°14' E 003°26'1010.2
2014-Jul-25 17:33N 57°05' E 003°18'1010.1
2014-Jul-25 16:33N 56°56' E 003°09'8 7.9
2014-Jul-25 15:33N 56°49' E 003°03'1110.6
2014-Jul-25 14:33N 56°40' E 002°54'1010.5
2014-Jul-25 13:33N 56°30' E 002°45'4110.2
2014-Jul-25 09:30N 55°53' E 002°13'1010.7
2014-Jul-25 08:33N 55°44' E 002°05'1110.8
2014-Jul-25 07:33N 55°34' E 001°57'1110.8
2014-Jul-25 06:31N 55°24' E 001°48'3110.4
2014-Jul-25 03:33N 54°56' E 001°26'1010.1
2014-Jul-25 02:33N 54°47' E 001°18'1010.2
2014-Jul-25 01:33N 54°38' E 001°10'1010.4
2014-Jul-25 00:33N 54°28' E 001°03'1110.6
2014-Jul-24 23:33N 54°19' E 000°55'1110.7
2014-Jul-24 22:33N 54°09' E 000°47'1110.6
2014-Jul-24 21:33N 53°59' E 000°39'1110.9
2014-Jul-24 20:33N 53°50' E 000°31'1111.4
2014-Jul-24 19:33N 53°39' E 000°23'1010.5
2014-Jul-24 18:34N 53°32' E 000°10'1211.5
2014-Jul-24 17:33N 53°37' W 000°08'2 2.0
2014-Jul-24 16:31N 53°38' W 000°11'0 0.0
2014-Jul-24 15:31N 53°38' W 000°11'0 0.0
2014-Jul-24 14:31N 53°38' W 000°11'0 0.0
2014-Jul-24 13:31N 53°38' W 000°11'0 0.0
2014-Jul-24 12:31N 53°38' W 000°11'0 0.0
2014-Jul-24 11:28N 53°38' W 000°11'0 0.0
2014-Jul-24 10:31N 53°38' W 000°11'0 0.0
2014-Jul-24 09:31N 53°38' W 000°11'0 0.0
2014-Jul-24 08:31N 53°38' W 000°11'0 0.0
2014-Jul-24 07:31N 53°38' W 000°11'0 0.0
2014-Jul-24 06:31N 53°38' W 000°11'0 0.0
2014-Jul-24 05:31N 53°38' W 000°11'0 0.0
2014-Jul-24 04:31N 53°38' W 000°11'0 0.0
2014-Jul-24 03:31N 53°38' W 000°11'0 0.0
2014-Jul-24 02:31N 53°38' W 000°11'0 0.0
2014-Jul-24 01:31N 53°38' W 000°11'0 0.0
2014-Jul-24 00:28N 53°38' W 000°11'0 0.0
2014-Jul-23 23:34N 53°38' W 000°11'7 6.6
2014-Jul-23 22:33N 53°36' W 000°01'9 9.4
2014-Jul-23 21:33N 53°33' E 000°14'6 6.3
2014-Jul-23 20:33N 53°38' E 000°21'6 6.4
2014-Jul-23 19:33N 53°43' E 000°27'10 9.8
2014-Jul-23 18:33N 53°50' E 000°39'1010.0
2014-Jul-23 17:33N 53°57' E 000°52'1010.2
2014-Jul-23 16:33N 54°04' E 001°05'1110.2
2014-Jul-23 15:31N 54°11' E 001°18'1010.3
2014-Jul-23 14:34N 54°18' E 001°30'8 7.8
2014-Jul-23 13:34N 54°23' E 001°40'1110.5
2014-Jul-23 12:33N 54°30' E 001°54'1110.6
2014-Jul-23 11:33N 54°37' E 002°07'9510.4
2014-Jul-23 02:25N 55°41' E 004°09'910.1
2014-Jul-23 01:33N 55°48' E 004°20'19710.2
2014-Jul-22 06:08N 58°02' E 008°46'711.1
2014-Jul-22 05:32N 58°07' E 008°55'3510.9
2014-Jul-22 02:21N 58°33' E 009°38'1310.8
2014-Jul-22 01:10N 58°41' E 009°57'810.9
2014-Jul-22 00:25N 58°46' E 010°09'1011.3
2014-Jul-21 23:33N 58°53' E 010°23'1111.0
2014-Jul-21 22:34N 58°59' E 010°40'9 8.9
2014-Jul-21 21:34N 59°01' E 010°57'0 0.5
2014-Jul-21 20:33N 59°01' E 010°58'0 0.0
2014-Jul-21 20:18N 59°01' E 010°58'0 0.0
2014-Jul-21 19:33N 59°01' E 010°58'0 0.0
2014-Jul-21 18:33N 59°01' E 010°58'1 1.3
2014-Jul-21 17:34N 59°02' E 010°58'10 9.7
2014-Jul-21 16:34N 59°12' E 010°57'6 2.0
2014-Jul-21 13:22N 59°16' E 011°06'0 0.0
2014-Jul-21 12:31N 59°16' E 011°06'0 0.0
2014-Jul-21 11:25N 59°16' E 011°06'0 0.0
2014-Jul-21 10:13N 59°16' E 011°06'0 0.0
2014-Jul-21 09:31N 59°16' E 011°06'0 0.0
2014-Jul-21 08:33N 59°16' E 011°06'0 0.0
2014-Jul-21 07:30N 59°16' E 011°06'0 0.0
2014-Jul-21 06:33N 59°16' E 011°06'0 0.0
2014-Jul-21 05:03N 59°16' E 011°06'0 0.0
2014-Jul-21 04:33N 59°16' E 011°06'0 0.0
2014-Jul-21 03:33N 59°16' E 011°06'4 4.0
2014-Jul-21 02:33N 59°14' E 010°59'7 7.2
2014-Jul-21 01:33N 59°07' E 010°59'6 6.2
2014-Jul-21 00:33N 59°02' E 010°52'7 7.3
2014-Jul-20 23:33N 58°60' E 010°38'8 7.9
2014-Jul-20 22:33N 58°56' E 010°25'54 7.4
2014-Jul-20 15:15N 58°22' E 009°02'5 7.6
2014-Jul-20 14:33N 58°19' E 008°55'8 8.3
2014-Jul-20 13:33N 58°13' E 008°43'8 7.9
2014-Jul-20 12:33N 58°08' E 008°32'7 7.5
2014-Jul-20 11:33N 58°04' E 008°20'74 7.1
2014-Jul-20 01:03N 58°14' E 006°00'4 9.0
2014-Jul-20 00:33N 58°16' E 005°54'9 8.9
2014-Jul-19 23:33N 58°23' E 005°41'11 8.9
2014-Jul-19 22:19N 58°30' E 005°26'17 9.4
2014-Jul-19 20:30N 58°42' E 005°02'  

Dump ship's entire track history